Total_Precipitation_Accumulation
0.01 0.05 0.37 0.59 0.65 0.55 0.27 0.25 0.27 0.26 0.29 0.35 0.47 0.44 0.43 0.38 0.26 0.26 0.16 0.19 0.25 0.26 0.30 0.33 0.29 0.38 0.66 0.71 0.64 0.28 0.14 0.10 0.14 0.23 0.16 0.18 0.22 0.17 0.12 0.09 0.13 0.14 0.19
0.01 0.06 0.35 0.63 0.62 0.69 0.80 0.55 0.35 0.26 0.39 0.53 0.52 0.39 0.51 0.68 0.33 0.24 0.16 0.22 0.23 0.23 0.21 0.36 0.47 0.47 0.45 0.28 0.20 0.08 0.06 0.06 0.03 0.02 0.04 0.07 0.15 0.14 0.13 0.13 0.31 0.29 0.27
0.01 0.09 0.20 0.61 0.55 0.52 0.72 0.82 0.61 0.38 0.27 0.27 0.43 0.52 0.60 0.61 0.26 0.13 0.13 0.23 0.20 0.22 0.29 0.46 0.39 0.22 0.08 0.05 0.04 0.05 0.06 0.08 0.05 0.07 0.06 0.16 0.23 0.36 0.37 0.57 0.91 0.78 0.77
0.03 0.12 0.17 0.47 0.53 0.56 0.55 0.59 0.71 0.68 0.37 0.26 0.45 0.64 0.57 0.39 0.23 0.15 0.23 0.31 0.23 0.22 0.27 0.15 0.08 0.04 0.03 0.02 0.02 0.03 0.05 0.08 0.07 0.06 0.05 0.04 0.16 0.78 0.71 0.67 0.56 0.48 0.44
0.08 0.13 0.18 0.43 0.54 0.49 0.39 0.44 0.45 0.61 0.71 0.49 0.49 0.77 0.70 0.38 0.28 0.28 0.39 0.53 0.20 0.18 0.17 0.09 0.07 0.06 0.05 0.03 0.04 0.07 0.07 0.06 0.01 0.01 0.02 0.10 0.40 0.87 0.58 0.51 0.36 0.34 0.32
0.08 0.15 0.29 0.54 0.66 0.56 0.30 0.33 0.48 0.47 0.58 0.76 0.72 0.75 0.75 0.42 0.45 0.57 0.64 0.42 0.18 0.11 0.12 0.12 0.09 0.06 0.08 0.08 0.07 0.10 0.07 0.08 0.01 0.01 0.07 0.29 0.39 0.68 0.48 0.53 0.52 0.44 0.44
0.11 0.16 0.29 0.72 0.79 0.65 0.47 0.39 0.57 0.66 0.60 0.71 0.86 0.80 0.74 0.54 0.62 0.61 0.54 0.38 0.32 0.14 0.13 0.12 0.14 0.06 0.11 0.13 0.09 0.08 0.12 0.06 0.03 0.06 0.20 0.33 0.48 0.48 0.45 0.45 0.48 0.42 0.50
0.14 0.20 0.38 0.54 0.54 0.61 0.65 0.56 0.62 0.66 0.68 0.73 0.92 1.11 0.99 0.94 0.86 0.61 0.47 0.40 0.43 0.17 0.12 0.16 0.14 0.07 0.08 0.11 0.10 0.12 0.07 0.03 0.07 0.12 0.23 0.18 0.39 0.34 0.43 0.39 0.46 0.56 0.59
0.47 0.45 0.58 0.53 0.41 0.44 0.71 0.69 0.59 0.64 0.66 0.72 0.81 0.90 0.78 0.69 0.83 0.67 0.46 0.37 0.43 0.38 0.21 0.23 0.25 0.13 0.08 0.09 0.09 0.07 0.04 0.04 0.06 0.08 0.15 0.10 0.31 0.49 0.53 0.44 0.53 0.62 0.52
1.13 0.82 0.66 0.60 0.39 0.34 0.45 0.53 0.52 0.47 0.55 0.60 0.54 0.40 0.25 0.25 0.35 0.81 0.65 0.23 0.43 0.59 0.33 0.23 0.21 0.20 0.11 0.09 0.07 0.07 0.04 0.02 0.05 0.06 0.09 0.09 0.30 0.59 0.60 0.53 0.49 0.47 0.62
1.94 1.86 1.29 0.79 0.43 0.31 0.46 0.50 0.48 0.53 0.64 0.64 0.48 0.29 0.16 0.10 0.12 0.27 0.45 0.27 0.19 0.43 0.47 0.36 0.24 0.22 0.11 0.04 0.03 0.03 0.03 0.01 0.03 0.03 0.06 0.15 0.32 0.40 0.44 0.39 0.31 0.29 0.32
2.50 2.09 2.09 1.78 1.11 0.63 0.51 0.46 0.40 0.49 0.55 0.40 0.35 0.34 0.19 0.10 0.12 0.18 0.25 0.30 0.15 0.28 0.43 0.45 0.39 0.23 0.07 0.03 0.02 0.01 0.01 0.01 0.02 0.01 0.01 0.05 0.19 0.28 0.31 0.33 0.26 0.25 0.25
4.20 2.94 2.78 2.30 1.87 1.23 0.90 0.73 0.44 0.32 0.39 0.45 0.35 0.37 0.32 0.25 0.24 0.28 0.40 0.41 0.28 0.14 0.23 0.24 0.27 0.20 0.06 0.04 0.02 0.02 0.01 0.01 0.01 0.00 0.01 0.03 0.12 0.45 0.49 0.37 0.34 0.30 0.29
5.59 4.24 2.82 2.22 1.93 1.67 1.55 0.98 0.65 0.52 0.42 0.40 0.35 0.35 0.29 0.28 0.26 0.25 0.31 0.36 0.45 0.34 0.31 0.20 0.11 0.16 0.17 0.11 0.09 0.05 0.04 0.03 0.02 0.02 0.02 0.02 0.06 0.27 0.52 0.42 0.41 0.36 0.33
4.05 4.33 3.65 2.46 2.01 1.80 1.98 1.85 1.18 1.02 0.80 0.63 0.57 0.43 0.30 0.20 0.20 0.28 0.29 0.32 0.38 0.39 0.38 0.31 0.20 0.14 0.12 0.16 0.16 0.15 0.12 0.11 0.13 0.16 0.09 0.08 0.11 0.22 0.29 0.20 0.25 0.31 0.33
4.15 4.14 4.77 3.47 2.73 2.47 2.35 2.17 1.98 1.48 1.32 0.93 0.81 0.86 0.66 0.31 0.18 0.20 0.26 0.30 0.31 0.41 0.53 0.48 0.31 0.20 0.19 0.16 0.07 0.10 0.12 0.13 0.13 0.14 0.16 0.15 0.19 0.25 0.32 0.30 0.26 0.31 0.41
4.09 4.47 4.69 4.29 3.35 2.82 3.14 2.67 1.79 1.79 1.67 1.46 0.95 0.95 0.87 0.77 0.43 0.27 0.24 0.27 0.32 0.39 0.54 0.57 0.58 0.37 0.16 0.15 0.08 0.04 0.07 0.06 0.11 0.13 0.12 0.09 0.10 0.17 0.25 0.33 0.36 0.33 0.46
4.52 4.20 4.36 4.22 3.48 3.45 2.97 3.25 2.40 1.85 1.48 1.30 1.19 0.89 0.84 0.81 1.07 0.70 0.49 0.31 0.35 0.55 0.67 0.55 0.59 0.65 0.44 0.28 0.22 0.15 0.11 0.08 0.04 0.05 0.06 0.09 0.12 0.16 0.16 0.22 0.32 0.31 0.41
2.45 3.82 4.37 3.63 3.05 2.88 2.57 3.02 2.88 2.20 1.54 1.23 1.15 0.95 0.83 0.71 0.88 1.31 1.14 0.78 0.58 0.63 0.70 0.85 0.73 0.50 0.51 0.50 0.36 0.39 0.32 0.22 0.19 0.13 0.05 0.03 0.04 0.06 0.08 0.13 0.21 0.20 0.21
1.77 1.99 3.87 4.71 3.98 3.01 2.52 2.46 2.59 2.11 1.69 1.26 1.08 0.93 0.68 0.64 0.60 0.96 1.14 1.16 1.21 1.03 0.79 0.80 0.79 0.82 0.57 0.54 0.64 0.61 0.55 0.40 0.22 0.14 0.08 0.06 0.06 0.07 0.07 0.09 0.11 0.08 0.13
2.50 1.79 2.00 3.60 4.49 3.93 2.96 1.80 1.78 1.35 1.67 1.35 1.25 1.11 0.83 0.84 0.84 0.97 1.25 1.06 1.00 1.07 0.87 0.87 1.06 1.16 1.05 1.12 1.12 0.89 0.65 0.45 0.29 0.19 0.12 0.07 0.06 0.07 0.10 0.16 0.20 0.20 0.17
2.08 2.00 1.93 1.76 2.39 2.82 3.26 2.66 1.81 1.55 1.46 1.42 1.46 1.49 1.26 1.16 1.09 1.02 1.06 1.25 1.13 0.98 1.05 1.05 1.16 1.31 1.38 1.58 1.45 1.24 1.11 0.77 0.39 0.23 0.19 0.14 0.10 0.15 0.15 0.18 0.21 0.21 0.22
1.56 1.78 2.15 2.25 2.00 1.95 2.34 3.47 3.21 2.33 2.02 1.93 1.85 1.56 1.78 2.08 2.07 1.72 1.69 1.58 1.70 1.80 1.60 1.68 1.69 1.74 1.68 1.83 1.72 1.60 1.37 0.88 0.47 0.29 0.20 0.20 0.23 0.22 0.22 0.25 0.25 0.27 0.30
1.92 2.14 2.78 2.90 2.68 2.08 1.95 2.19 2.17 2.65 2.27 1.94 1.70 1.84 2.14 2.45 2.65 2.62 2.49 2.82 2.69 2.38 2.24 2.11 2.04 1.94 1.93 1.97 2.11 1.86 1.77 1.55 1.33 0.96 0.59 0.50 0.49 0.41 0.36 0.33 0.28 0.29 0.34
2.28 2.24 2.50 3.28 2.93 2.38 2.49 2.41 2.34 2.02 2.19 2.11 1.52 1.38 1.39 1.56 1.61 1.86 1.97 2.07 2.22 2.12 2.06 1.96 1.79 1.67 1.62 1.42 1.44 1.42 1.35 1.44 1.55 1.49 0.93 0.54 0.46 0.40 0.39 0.39 0.40 0.44 0.54
2.13 1.60 2.04 2.75 2.53 2.27 2.38 2.34 2.64 2.26 2.17 2.29 2.02 1.55 1.22 1.09 1.33 1.33 1.42 1.45 1.36 1.33 1.47 1.39 1.41 1.37 1.22 1.16 1.01 1.01 0.96 0.98 0.98 1.17 1.13 0.89 0.72 0.46 0.37 0.33 0.38 0.38 0.41